Alpena, MI

8:37 AM EDT on April 23, 2017 (GMT -0400)
Alpena County Regional

Weather History for KAPN - May, 2011

Change the Weather History Date:

Wednesday, May 25, 2011

  Actual Average Record
Temperature  
Mean Temperature 46 °F 55 °F  
Max Temperature 55 °F 68 °F 87 °F (1965)
Min Temperature 37 °F 43 °F 26 °F (1934)
Degree Days  
Heating Degree Days 19 10  
Month to date heating degree days 318 343  
Since 1 July heating degree days 8006 7902  
Cooling Degree Days 0 1  
Month to date cooling degree days 5 2  
Year to date cooling degree days 5 4  
Moisture  
Dew Point 42 °F    
Average Humidity 80    
Maximum Humidity 93    
Minimum Humidity 66    
Precipitation  
Precipitation 0.62 in 0.09 in 1.57 in (1955)
Month to date precipitation 2.83 2.11  
Year to date precipitation 13.63 9.34  
Sea Level Pressure  
Sea Level Pressure 29.90 in    
Wind  
Wind Speed 7 mph (NE)    
Max Wind Speed 15 mph    
Max Gust Speed 20 mph    
Visibility 8 miles    
Events Rain    
T = Trace of Precipitation, MM = Missing Value Source: NWS Daily Summary

Daily Weather History Graph

Daily Weather History Graph

Search for Another Location

Airport or City:

Trip Planner

Search our weather history database for the weather conditions in past years. The results will help you decide how hot, cold, wet, or windy it might be!

Date:

Astronomy

May. 25, 2011 Rise Set
Actual Time 5:55 AM EDT 9:07 PM EDT
Civil Twilight 5:19 AM EDT 9:43 PM EDT
Nautical Twilight 4:33 AM EDT 10:29 PM EDT
Astronomical Twilight 3:37 AM EDT 11:26 PM EDT
Moon 2:13 AM EDT (5/25) 2:13 PM EDT (5/25)
Length of Visible Light 16h 23m
Length of Day
15h 11m
Last Quarter, 42% of the Moon is Illuminated
May 25
Last Quarter
Jun 1
New
Jun 8
First Quarter
Jun 15
Full
Jun 23
Last Quarter

Hourly Weather History & Observations

Time (EDT) Temp. Windchill Dew Point Humidity Pressure Visibility Wind Dir Wind Speed Gust Speed Precip Events Conditions
12:54 AM 44.1 °F 40.1 °F 39.0 °F 82% 30.01 in 10.0 mi North 6.9 mph - N/A   Clear
1:54 AM 42.1 °F 40.2 °F 37.9 °F 85% 30.02 in 10.0 mi North 3.5 mph - N/A   Clear
2:54 AM 41.0 °F - 37.9 °F 89% 30.02 in 10.0 mi Calm Calm - N/A   Clear
3:54 AM 39.9 °F - 37.0 °F 89% 30.01 in 10.0 mi Calm Calm - N/A   Clear
4:54 AM 39.0 °F - 37.0 °F 93% 30.02 in 10.0 mi Calm Calm - N/A   Clear
5:54 AM 39.0 °F - 37.0 °F 93% 30.03 in 10.0 mi Calm Calm - N/A   Clear
6:54 AM 39.0 °F - 37.0 °F 93% 30.02 in 10.0 mi Calm Calm - N/A   Clear
7:54 AM 44.1 °F - 41.0 °F 89% 30.01 in 10.0 mi Calm Calm - N/A   Clear
8:54 AM 50.0 °F - 42.1 °F 74% 30.01 in 10.0 mi SE 5.8 mph - N/A   Clear
9:54 AM 53.1 °F - 42.1 °F 66% 29.99 in 10.0 mi SE 10.4 mph - N/A   Clear
10:54 AM 53.1 °F - 42.1 °F 66% 29.99 in 10.0 mi ESE 9.2 mph - N/A   Mostly Cloudy
11:54 AM 54.0 °F - 42.1 °F 64% 29.98 in 10.0 mi ESE 10.4 mph 19.6 mph N/A   Mostly Cloudy
12:54 PM 53.1 °F - 42.1 °F 66% 29.95 in 10.0 mi SE 9.2 mph - N/A   Mostly Cloudy
1:54 PM 52.0 °F - 41.0 °F 66% 29.94 in 10.0 mi East 8.1 mph - N/A   Overcast
2:54 PM 52.0 °F - 41.0 °F 66% 29.93 in 10.0 mi East 9.2 mph - N/A   Mostly Cloudy
3:54 PM 48.9 °F - 43.0 °F 80% 29.93 in 7.0 mi ESE 4.6 mph - 0.00 in Rain Light Rain
4:54 PM 46.9 °F - 43.0 °F 86% 29.87 in 10.0 mi NE 9.2 mph - 0.03 in Rain Light Rain
5:54 PM 46.0 °F 42.5 °F 43.0 °F 89% 29.84 in 10.0 mi NE 6.9 mph - 0.03 in Rain Light Rain
6:54 PM 46.0 °F 40.6 °F 43.0 °F 89% 29.84 in 3.0 mi North 11.5 mph - 0.03 in Rain Rain
7:54 PM 46.0 °F 40.6 °F 44.1 °F 93% 29.83 in 4.0 mi NNE 11.5 mph - 0.12 in Rain Rain
8:08 PM 46.4 °F 41.9 °F 44.6 °F 93% 29.80 in 6.0 mi NNE 9.2 mph - 0.01 in Rain Light Rain
8:25 PM 46.4 °F 41.9 °F 44.6 °F 93% 29.80 in 7.0 mi NE 9.2 mph - 0.02 in Rain Light Rain
8:44 PM 46.4 °F 41.9 °F 44.6 °F 93% 29.80 in 3.0 mi NE 9.2 mph - 0.03 in Rain Light Rain
8:54 PM 46.0 °F 42.5 °F 44.1 °F 93% 29.81 in 4.0 mi NE 6.9 mph - 0.05 in Rain Rain
9:23 PM 46.4 °F 42.4 °F 44.6 °F 93% 29.78 in 6.0 mi NE 8.1 mph - 0.02 in Rain Light Rain
9:49 PM 46.4 °F 42.4 °F 44.6 °F 93% 29.79 in 4.0 mi NNE 8.1 mph - 0.03 in Rain Light Rain
9:54 PM 46.0 °F 41.9 °F 44.1 °F 93% 29.80 in 3.0 mi NNE 8.1 mph - 0.04 in Rain Light Rain
10:15 PM 46.4 °F 41.5 °F 44.6 °F 93% 29.78 in 3.0 mi NE 10.4 mph - 0.02 in Rain Light Rain
10:36 PM 46.4 °F 41.9 °F 44.6 °F 93% 29.80 in 6.0 mi NNE 9.2 mph - 0.04 in Rain Light Rain
10:54 PM 46.9 °F - 45.0 °F 93% 29.80 in 6.0 mi NNE 10.4 mph - 0.08 in Rain Rain
11:09 PM 46.4 °F 41.9 °F 44.6 °F 93% 29.79 in 7.0 mi NNE 9.2 mph - 0.02 in Rain Light Rain
11:54 PM 46.0 °F 41.0 °F 45.0 °F 96% 29.83 in 4.0 mi NNW 10.4 mph - 0.11 in Rain Rain